RH
86 78 80 80 80 67 75 83 95 78 93 94 97 95 96 95 92 81 68 59 50 44 39 35 32 32 31 31 27 26 26 25 24 24 26 27 30 36 41 45 47 49 52 56
73 74 75 61 52 62 61 67 87 92 92 96 95 93 93 94 95 92 82 76 67 59 47 40 38 36 37 34 28 25 23 23 26 25 27 28 32 38 43 46 47 48 51 54
75 73 72 67 54 58 60 66 83 89 79 77 86 86 90 91 91 95 90 85 80 72 67 59 48 40 39 36 35 30 27 25 26 29 31 35 38 43 45 47 48 49 52 56
82 80 86 53 48 58 64 72 87 87 88 78 83 86 86 89 86 91 92 92 85 85 78 68 60 58 60 53 45 39 34 30 27 32 37 40 44 46 49 50 50 51 55 57
89 86 67 67 70 81 76 82 94 93 90 86 83 86 86 84 81 84 87 89 89 92 90 84 72 68 67 65 63 63 49 41 38 41 44 47 47 49 50 53 55 54 57 63
90 95 88 62 73 68 86 91 94 95 93 87 85 89 86 80 79 79 77 76 74 84 93 90 85 82 76 69 67 68 69 67 57 57 56 58 56 55 54 56 58 58 59 63
96 95 76 64 69 73 87 97 97 97 94 89 88 81 80 80 80 71 71 70 70 74 86 96 92 86 80 76 73 73 75 66 65 68 66 66 64 64 62 62 61 61 64 63
88 89 84 78 69 78 81 85 92 97 92 88 83 80 77 75 74 73 73 68 67 69 73 82 94 92 87 90 82 76 73 77 71 65 71 73 72 69 66 67 66 69 69 65
95 85 74 70 71 75 78 84 95 96 86 83 85 82 80 78 75 74 74 71 65 69 70 73 83 92 88 91 94 90 84 80 83 79 74 71 73 74 74 73 72 72 72 68
91 69 70 65 78 81 80 85 90 94 88 85 81 80 80 79 76 75 74 71 67 67 66 66 74 81 84 87 92 94 91 86 81 81 83 83 78 75 69 71 71 73 73 68
62 55 60 60 68 73 79 82 85 88 91 86 80 76 70 70 68 68 67 64 62 60 62 63 67 72 75 71 79 89 91 87 90 86 86 89 86 80 75 73 73 71 75 75
56 53 57 56 64 74 77 82 82 83 81 77 72 65 58 53 54 55 52 50 51 53 53 56 59 62 66 73 68 68 76 83 89 91 92 90 88 91 86 84 80 76 78 75
63 61 55 51 55 62 71 78 79 82 75 67 62 53 45 41 39 37 40 39 37 42 41 42 44 52 58 60 69 66 64 61 71 85 90 94 93 89 91 92 90 86 81 79
78 76 72 63 57 58 67 75 78 75 72 66 55 46 40 37 34 32 31 32 35 36 36 33 33 35 38 49 51 55 53 55 56 57 65 83 88 92 90 91 92 92 89 87
91 85 87 81 72 73 78 78 74 69 62 57 50 47 44 41 37 34 31 30 29 29 31 35 33 28 28 30 34 39 48 45 44 46 48 52 70 78 83 84 84 86 94 94
96 92 88 96 95 89 80 71 64 58 52 49 49 49 49 47 45 42 37 36 33 30 30 31 33 34 32 28 26 25 28 35 41 38 38 41 44 51 59 73 76 80 83 87
96 94 89 84 79 74 68 63 59 57 55 53 51 51 51 49 47 45 43 41 39 36 33 31 30 31 30 31 30 25 23 23 25 32 32 33 35 36 42 46 51 64 70 79
85 81 76 72 69 67 65 63 61 60 59 58 54 51 49 49 48 48 49 48 45 41 39 34 32 32 35 35 34 31 26 21 20 22 25 28 28 31 33 40 40 37 40 55
83 80 78 74 71 68 66 64 63 62 61 62 62 59 57 56 53 52 52 51 50 47 42 40 36 33 34 37 39 40 37 32 24 19 21 23 24 25 28 30 35 38 35 32
79 79 76 73 70 66 61 61 61 62 62 61 63 63 60 57 55 55 56 56 54 52 50 48 46 42 39 37 38 46 45 40 36 29 23 23 24 24 24 26 30 32 35 35
77 74 71 68 66 64 60 56 55 58 64 65 63 62 60 56 56 57 59 58 58 60 58 56 54 53 52 49 45 48 53 49 44 40 33 26 26 27 26 27 28 26 28 34
74 68 66 66 64 64 60 55 53 54 59 64 65 65 62 60 60 62 68 68 65 66 65 62 62 64 65 64 62 59 59 60 53 48 44 39 32 30 31 31 29 28 31 37
71 73 72 71 66 60 56 53 58 59 59 66 70 69 67 65 66 69 70 78 78 78 76 73 73 74 75 75 75 74 72 71 65 57 52 47 42 37 34 35 38 39 38 38
78 74 73 68 60 53 49 48 62 68 66 66 74 75 73 69 69 78 82 82 84 82 81 80 82 84 85 83 81 80 84 79 71 62 60 59 54 48 45 44 47 46 44 41
68 65 56 50 45 43 42 44 58 68 67 65 71 74 78 77 77 77 86 91 91 89 87 86 90 91 89 91 87 89 89 83 71 65 64 64 63 59 53 49 48 50 53 53
60 49 46 45 44 45 46 47 54 65 65 60 64 68 77 76 79 84 89 93 91 92 91 90 94 93 94 95 93 87 86 81 77 67 63 63 64 62 57 54 56 57 57 55
50 44 46 45 48 50 51 52 54 61 67 62 61 67 74 74 79 88 89 91 91 94 93 92 93 95 96 96 97 91 82 79 73 69 61 57 57 56 57 57 56 57 58 57